TimeCDT,TemperatureF,Dew PointF,Humidity,Sea Level PressureIn,VisibilityMPH,Wind Direction,Wind SpeedMPH,Gust SpeedMPH,PrecipitationIn,Events,Conditions,WindDirDegrees,DateUTC
12:15 AM,48.2,39.2,71,30.01,10.0,West,12.7,-,N/A,,Clear,260,2013-10-07 05:15:00
12:35 AM,48.2,39.2,71,30.01,10.0,WSW,6.9,-,N/A,,Clear,250,2013-10-07 05:35:00
12:55 AM,48.2,39.2,71,30.01,10.0,WSW,8.1,-,N/A,,Clear,250,2013-10-07 05:55:00
1:15 AM,48.2,39.2,71,30.01,10.0,WSW,10.4,-,N/A,,Clear,250,2013-10-07 06:15:00
1:35 AM,46.4,39.2,76,30.01,10.0,WSW,9.2,-,N/A,,Clear,250,2013-10-07 06:35:00
1:55 AM,46.4,39.2,76,30.01,10.0,WSW,8.1,-,N/A,,Clear,250,2013-10-07 06:55:00
2:15 AM,46.4,39.2,76,30.01,10.0,WSW,6.9,-,N/A,,Clear,240,2013-10-07 07:15:00
2:35 AM,44.6,37.4,76,30.00,10.0,WSW,3.5,-,N/A,,Clear,240,2013-10-07 07:35:00
2:55 AM,44.6,37.4,76,30.00,10.0,WSW,5.8,-,N/A,,Clear,240,2013-10-07 07:55:00
3:15 AM,44.6,39.2,81,30.00,10.0,WSW,6.9,-,N/A,,Clear,250,2013-10-07 08:15:00
3:35 AM,44.6,39.2,81,29.99,10.0,WSW,6.9,-,N/A,,Clear,240,2013-10-07 08:35:00
3:55 AM,44.6,39.2,81,29.99,10.0,WSW,8.1,-,N/A,,Clear,240,2013-10-07 08:55:00
4:15 AM,44.6,37.4,76,29.99,10.0,WSW,5.8,-,N/A,,Clear,250,2013-10-07 09:15:00
4:35 AM,44.6,37.4,76,29.99,10.0,WSW,4.6,-,N/A,,Clear,250,2013-10-07 09:35:00
4:55 AM,44.6,39.2,81,29.99,10.0,SW,5.8,-,N/A,,Clear,230,2013-10-07 09:55:00
5:15 AM,44.6,37.4,76,29.99,10.0,SW,3.5,-,N/A,,Clear,230,2013-10-07 10:15:00
5:35 AM,44.6,39.2,81,29.98,10.0,SW,6.9,-,N/A,,Clear,230,2013-10-07 10:35:00
5:55 AM,44.6,39.2,81,29.98,10.0,SW,5.8,-,N/A,,Clear,230,2013-10-07 10:55:00
6:15 AM,44.6,37.4,76,29.98,10.0,WSW,5.8,-,N/A,,Clear,240,2013-10-07 11:15:00
6:35 AM,44.6,39.2,81,29.99,10.0,SW,6.9,-,N/A,,Clear,230,2013-10-07 11:35:00
6:55 AM,44.6,39.2,81,29.99,10.0,SW,6.9,-,N/A,,Clear,220,2013-10-07 11:55:00
7:15 AM,44.6,39.2,81,29.99,10.0,SW,6.9,-,N/A,,Clear,220,2013-10-07 12:15:00
7:35 AM,44.6,39.2,81,29.99,10.0,SW,5.8,-,N/A,,Clear,230,2013-10-07 12:35:00
7:55 AM,44.6,39.2,81,29.99,8.0,Calm,Calm,-,N/A,,Partly Cloudy,0,2013-10-07 12:55:00
8:15 AM,44.6,39.2,81,30.00,10.0,SW,5.8,-,N/A,,Clear,230,2013-10-07 13:15:00
8:35 AM,46.4,42.8,87,30.01,10.0,Calm,Calm,-,N/A,,Clear,0,2013-10-07 13:35:00
8:55 AM,46.4,42.8,87,30.01,10.0,East,3.5,-,N/A,,Clear,80,2013-10-07 13:55:00
9:15 AM,46.4,42.8,87,30.01,10.0,Calm,Calm,-,N/A,,Clear,0,2013-10-07 14:15:00
9:35 AM,50.0,42.8,76,30.02,10.0,Calm,Calm,-,N/A,,Clear,0,2013-10-07 14:35:00
9:55 AM,51.8,44.6,76,30.02,10.0,SW,5.8,-,N/A,,Clear,220,2013-10-07 14:55:00
10:15 AM,55.4,44.6,67,30.02,10.0,SW,4.6,-,N/A,,Clear,220,2013-10-07 15:15:00
10:35 AM,55.4,44.6,67,30.02,10.0,South,3.5,-,N/A,,Clear,190,2013-10-07 15:35:00
10:55 AM,57.2,44.6,63,30.02,10.0,Calm,Calm,-,N/A,,Clear,0,2013-10-07 15:55:00
11:15 AM,59.0,44.6,59,30.02,10.0,Calm,Calm,-,N/A,,Clear,0,2013-10-07 16:15:00
11:35 AM,60.8,44.6,55,30.02,10.0,Calm,Calm,-,N/A,,Clear,0,2013-10-07 16:35:00
11:55 AM,62.6,44.6,52,30.02,10.0,Calm,Calm,-,N/A,,Clear,0,2013-10-07 16:55:00
12:15 PM,62.6,46.4,55,30.02,10.0,Calm,Calm,-,N/A,,Clear,0,2013-10-07 17:15:00
12:35 PM,64.4,46.4,52,30.01,10.0,South,6.9,-,N/A,,Clear,180,2013-10-07 17:35:00
12:55 PM,64.4,46.4,52,30.01,10.0,Calm,Calm,-,N/A,,Clear,0,2013-10-07 17:55:00
1:15 PM,66.2,44.6,46,30.00,10.0,SSW,3.5,-,N/A,,Clear,200,2013-10-07 18:15:00
1:35 PM,68.0,44.6,43,29.99,10.0,SW,4.6,-,N/A,,Clear,220,2013-10-07 18:35:00
1:55 PM,69.8,46.4,43,29.98,10.0,SW,9.2,-,N/A,,Clear,220,2013-10-07 18:55:00
2:15 PM,69.8,44.6,40,29.97,10.0,SW,6.9,-,N/A,,Clear,230,2013-10-07 19:15:00
2:35 PM,71.6,44.6,38,29.97,10.0,SW,6.9,-,N/A,,Clear,220,2013-10-07 19:35:00
2:55 PM,71.6,44.6,38,29.97,10.0,WSW,6.9,-,N/A,,Clear,240,2013-10-07 19:55:00
3:15 PM,71.6,42.8,35,29.96,10.0,South,5.8,-,N/A,,Clear,190,2013-10-07 20:15:00
3:35 PM,71.6,42.8,35,29.95,10.0,SSW,8.1,-,N/A,,Clear,200,2013-10-07 20:35:00
3:55 PM,73.4,44.6,36,29.94,10.0,SSW,8.1,-,N/A,,Clear,210,2013-10-07 20:55:00
4:15 PM,73.4,42.8,33,29.94,10.0,SSW,3.5,-,N/A,,Clear,200,2013-10-07 21:15:00
4:35 PM,73.4,44.6,36,29.94,10.0,SSW,4.6,-,N/A,,Clear,210,2013-10-07 21:35:00
4:55 PM,73.4,44.6,36,29.93,10.0,SE,4.6,-,N/A,,Clear,140,2013-10-07 21:55:00
5:15 PM,73.4,42.8,33,29.93,10.0,SE,4.6,-,N/A,,Clear,140,2013-10-07 22:15:00
5:35 PM,73.4,44.6,36,29.93,10.0,South,4.6,-,N/A,,Clear,170,2013-10-07 22:35:00
5:55 PM,71.6,44.6,38,29.92,10.0,SE,3.5,-,N/A,,Clear,130,2013-10-07 22:55:00
6:15 PM,71.6,42.8,35,29.92,10.0,SE,3.5,-,N/A,,Clear,140,2013-10-07 23:15:00
6:35 PM,71.6,42.8,35,29.91,10.0,ESE,3.5,-,N/A,,Clear,110,2013-10-07 23:35:00
6:55 PM,69.8,42.8,38,29.92,10.0,ESE,4.6,-,N/A,,Clear,120,2013-10-07 23:55:00
7:15 PM,68.0,42.8,40,29.91,9.0,ESE,4.6,-,N/A,,Clear,120,2013-10-08 00:15:00
7:35 PM,66.2,42.8,43,29.91,8.0,ESE,5.8,-,N/A,,Clear,110,2013-10-08 00:35:00
7:55 PM,64.4,44.6,49,29.92,10.0,ESE,4.6,-,N/A,,Clear,120,2013-10-08 00:55:00
8:15 PM,64.4,44.6,49,29.92,10.0,SE,4.6,-,N/A,,Clear,130,2013-10-08 01:15:00
8:35 PM,60.8,44.6,55,29.91,10.0,SE,5.8,-,N/A,,Clear,130,2013-10-08 01:35:00
8:55 PM,60.8,44.6,55,29.91,10.0,SE,4.6,-,N/A,,Clear,130,2013-10-08 01:55:00
9:15 PM,59.0,44.6,59,29.91,10.0,ESE,4.6,-,N/A,,Clear,120,2013-10-08 02:15:00
9:35 PM,55.4,44.6,67,29.91,10.0,Calm,Calm,-,N/A,,Clear,0,2013-10-08 02:35:00
9:55 PM,57.2,44.6,63,29.91,10.0,SSE,5.8,-,N/A,,Clear,160,2013-10-08 02:55:00
10:15 PM,55.4,44.6,67,29.90,10.0,ESE,4.6,-,N/A,,Clear,110,2013-10-08 03:15:00
10:35 PM,55.4,44.6,67,29.90,10.0,ESE,4.6,-,N/A,,Clear,120,2013-10-08 03:35:00
10:55 PM,55.4,42.8,63,29.90,10.0,SSE,4.6,-,N/A,,Clear,150,2013-10-08 03:55:00
11:15 PM,55.4,44.6,67,29.90,10.0,SSE,4.6,-,N/A,,Clear,160,2013-10-08 04:15:00
11:35 PM,55.4,44.6,67,29.89,10.0,SSE,4.6,-,N/A,,Clear,150,2013-10-08 04:35:00
11:55 PM,53.6,42.8,67,29.88,10.0,SSE,8.1,-,N/A,,Clear,150,2013-10-08 04:55:00